Lapse_Rate
7.1 7.1 7.1 7.3 7.2 7.4 7.5 7.9 7.8 8.0 8.0 8.1 8.0 8.0 7.8 7.8 7.6 7.7 8.3 9.1 8.3 7.4 7.9 8.1 8.2 7.3 7.3 7.1 6.5 6.8 6.8 6.9 6.5 6.5 6.5 6.5 6.5 6.5 6.5 6.5 6.5 6.5 6.5 6.5 6.5 6.5 6.5 6.6 6.6 6.5 6.5 6.6 6.6 6.6
7.3 7.2 7.0 6.9 7.0 7.2 7.5 7.6 7.9 7.5 8.0 8.1 7.5 7.9 7.9 7.9 7.6 7.8 8.4 9.0 9.3 7.8 7.8 8.7 8.8 8.9 8.6 8.4 7.5 7.4 6.8 6.7 6.8 6.5 6.5 6.5 6.5 6.5 6.5 6.5 6.5 6.5 6.5 6.5 6.5 6.5 6.5 7.0 6.7 7.0 6.1 6.8 6.9 6.7
6.9 6.7 6.7 6.6 6.9 7.0 7.2 7.5 7.3 7.5 8.0 7.6 7.4 7.6 7.8 8.0 7.9 7.9 8.6 8.4 8.5 7.6 7.8 8.1 7.9 9.0 9.4 9.1 9.2 7.0 7.5 7.7 7.3 7.7 6.6 6.5 6.5 6.5 6.5 6.5 6.5 6.5 6.5 6.5 6.5 6.5 6.5 6.9 7.1 6.9 6.4 7.3 7.5 7.7
6.9 6.7 6.7 6.9 6.8 7.1 7.3 7.2 7.5 7.8 7.7 7.5 7.1 7.1 7.7 7.9 7.9 7.7 8.1 8.4 8.5 8.1 6.7 7.2 9.3 8.6 9.5 9.4 9.1 8.9 8.3 8.4 8.2 7.8 6.6 6.5 6.5 6.7 6.5 6.5 6.5 6.5 6.5 6.5 6.5 6.5 6.7 7.0 7.3 7.4 7.5 7.7 7.7 7.8
6.7 6.9 7.0 6.9 6.9 7.0 7.2 7.3 7.5 7.6 7.7 7.7 7.5 7.1 7.7 7.9 8.0 7.8 8.2 8.4 8.8 8.1 6.7 7.0 8.4 8.9 9.1 9.0 8.8 8.8 8.5 8.1 7.1 6.7 6.5 6.5 6.7 6.6 6.5 6.5 6.5 6.6 6.5 6.5 6.5 6.6 6.6 6.8 6.3 7.5 7.4 7.4 7.7 7.6
7.0 7.0 6.9 6.9 6.9 7.0 7.1 7.2 7.4 7.5 7.5 7.5 7.4 7.3 7.6 7.8 8.0 7.1 5.6 7.0 8.7 8.7 6.9 6.5 8.2 8.2 8.7 8.7 8.5 8.3 8.4 7.9 7.5 7.2 6.6 7.1 7.6 6.6 6.5 6.5 6.5 7.1 7.4 7.3 6.5 7.4 7.3 7.2 7.5 8.0 7.6 7.7 7.8 7.8
6.7 7.2 7.2 7.0 7.0 7.1 7.2 7.2 7.4 7.4 7.4 7.5 7.4 7.3 7.5 7.8 7.0 6.0 7.0 6.8 7.1 8.3 6.8 6.5 6.5 8.0 8.5 8.4 8.2 8.1 8.2 7.5 7.3 7.0 6.7 6.9 7.0 6.8 6.5 6.5 6.5 7.3 7.6 7.7 7.9 7.6 6.5 6.0 7.1 7.9 8.0 8.0 6.9 6.4
7.0 6.7 7.0 7.3 7.1 7.0 7.0 7.1 7.4 7.4 7.4 7.4 7.4 7.0 6.9 7.5 6.6 6.1 7.4 5.4 7.8 6.7 6.3 6.5 6.5 6.8 8.3 7.2 6.8 8.2 7.2 7.3 6.8 7.0 7.1 6.5 6.9 6.6 6.5 6.5 7.1 7.4 7.6 7.7 7.9 7.9 7.3 7.9 7.9 7.9 8.1 8.1 7.7 7.5
6.6 6.9 6.5 6.7 7.2 7.2 7.2 7.2 7.3 7.5 7.5 7.5 6.7 6.0 4.7 3.6 5.4 5.4 6.8 6.3 6.2 7.3 6.7 6.7 6.5 6.5 7.9 7.1 7.5 7.4 7.5 6.5 7.4 6.5 6.5 6.7 6.5 6.5 6.5 6.6 7.0 7.3 7.2 7.5 7.7 7.8 7.7 7.6 7.6 7.7 7.8 7.8 7.5 7.6
6.5 6.5 6.6 6.2 6.7 7.0 7.2 7.4 7.4 6.9 6.4 6.4 5.9 5.3 6.4 5.5 6.2 6.0 5.2 6.0 6.0 6.6 7.2 6.5 7.3 6.5 7.3 6.9 6.6 6.6 6.9 6.5 6.5 6.5 7.0 6.5 6.5 7.0 7.3 7.5 7.6 7.5 7.7 7.9 7.1 6.9 7.3 7.2 7.4 7.5 7.6 7.8 7.8 7.4
7.3 6.7 6.3 6.0 5.7 5.8 5.9 6.3 6.5 6.7 6.6 6.0 7.1 6.8 6.4 6.8 6.7 6.7 6.9 6.7 6.9 6.5 7.2 7.1 7.1 6.5 7.7 6.5 6.5 6.9 6.5 6.5 6.5 6.5 6.5 6.5 6.5 6.5 7.5 7.7 8.0 8.0 8.0 8.0 8.0 7.9 7.9 7.8 7.7 7.7 7.7 7.0 4.8 3.9
7.3 7.4 7.3 7.3 7.4 7.0 6.8 6.9 6.7 7.3 7.7 7.1 5.8 6.5 6.5 7.0 7.1 6.6 6.5 6.6 6.5 6.5 6.8 6.5 6.8 7.3 7.2 7.6 6.6 6.7 6.5 6.5 6.5 6.6 6.5 6.5 6.5 7.1 7.3 7.5 7.8 7.9 8.0 8.0 8.2 8.0 8.1 7.7 5.8 7.3 3.6 1.9 1.3 1.2
7.0 6.6 6.8 6.8 6.9 7.1 7.5 6.8 6.6 6.3 8.0 8.6 8.3 7.6 7.1 7.0 6.5 6.5 6.5 6.5 6.5 6.5 6.9 6.9 6.6 7.0 7.2 7.4 6.6 6.5 6.5 6.5 6.6 6.5 6.5 6.5 6.7 7.2 7.4 7.7 7.7 8.1 8.0 8.0 7.6 7.4 5.7 3.2 2.5 2.2 1.9 1.2 1.2 1.6
6.5 6.7 6.4 6.2 6.4 6.8 6.8 6.3 6.1 8.2 8.5 7.5 6.8 6.5 6.5 6.5 6.5 6.5 6.5 6.5 6.8 6.9 7.0 7.0 6.7 6.6 6.9 6.5 6.5 6.5 6.5 6.5 6.5 6.5 6.5 6.5 6.8 7.2 7.5 7.7 7.4 6.3 5.3 6.0 4.8 3.3 3.8 4.8 4.0 3.1 2.5 2.2 2.3 1.4
5.8 6.1 6.6 5.9 5.6 6.0 6.2 6.7 5.8 8.5 7.7 7.1 7.0 6.5 6.5 6.7 6.9 7.0 7.2 7.0 7.3 7.5 7.2 6.9 6.9 6.9 6.5 6.5 6.5 6.5 6.5 6.5 6.5 6.5 6.5 6.8 7.2 7.2 7.3 6.7 5.9 5.5 5.5 5.4 5.6 5.1 4.9 4.9 4.0 3.7 3.7 3.6 3.2 3.4
5.7 5.2 6.7 5.4 5.4 6.0 6.0 6.1 7.0 7.8 6.5 7.3 7.1 6.5 6.8 6.6 6.5 6.9 6.9 6.9 7.8 7.4 7.5 7.2 6.5 6.5 6.5 6.5 6.5 6.5 6.5 6.5 6.5 6.5 6.8 7.3 7.3 7.2 7.1 6.2 5.8 5.9 5.6 5.7 5.8 5.1 4.4 3.8 4.1 4.7 4.3 3.6 3.8 3.8
5.2 8.8 5.7 5.7 5.4 6.0 6.8 6.8 6.2 5.9 6.9 6.9 6.6 5.7 6.9 6.8 6.7 6.9 7.2 7.2 7.9 7.1 6.5 6.5 6.5 6.5 6.5 6.5 6.5 6.5 6.5 6.5 6.5 6.8 7.2 7.4 7.2 6.8 6.3 5.9 5.5 6.1 5.9 5.6 4.8 4.6 4.6 5.5 6.4 6.3 4.8 4.6 4.2 4.0
8.4 7.6 6.5 5.7 5.8 7.2 7.8 7.2 6.2 6.7 6.6 7.0 6.6 7.0 7.0 7.0 7.0 6.9 6.9 7.1 7.3 7.1 6.9 6.5 6.7 6.5 6.5 6.5 6.5 6.5 6.7 7.0 7.1 7.2 7.4 7.3 7.0 6.5 6.8 6.5 6.1 6.3 5.8 5.8 5.6 6.0 6.3 7.2 7.6 7.4 6.6 6.7 6.6 6.8
8.2 7.0 5.7 5.2 6.0 7.4 7.8 7.8 8.2 6.6 6.9 7.0 6.9 7.2 7.1 6.8 7.2 7.2 7.5 7.7 8.0 8.0 7.1 6.7 6.5 6.5 6.5 6.5 6.5 6.7 6.9 7.1 7.1 7.4 6.9 6.6 6.4 6.1 6.3 6.9 6.2 6.4 6.2 6.3 7.9 8.1 8.1 8.3 8.2 8.3 8.3 8.0 7.4 7.3
6.5 6.3 5.7 5.5 5.5 8.4 7.6 7.6 8.6 7.2 6.5 7.1 7.2 7.1 7.2 7.0 6.8 6.6 7.0 7.4 7.7 7.3 6.6 6.5 6.5 6.7 6.8 7.2 7.1 7.4 7.5 7.7 7.6 7.2 7.1 6.6 6.5 6.5 7.1 6.6 7.4 6.9 7.2 7.8 8.0 7.8 8.3 8.1 7.9 7.8 7.6 7.2 7.1 7.0
7.5 7.7 6.7 7.1 8.7 8.7 8.0 7.6 7.3 7.1 7.4 7.0 7.0 7.1 6.9 7.4 7.2 7.1 7.1 7.6 7.0 6.7 6.5 7.2 7.0 7.3 7.9 7.6 7.8 8.0 7.7 7.9 7.6 7.2 6.6 7.0 6.4 7.0 7.0 7.4 6.9 7.6 7.7 7.6 7.5 7.2 7.3 7.4 7.3 6.8 7.2 6.9 6.7 6.7
9.0 6.7 8.3 8.4 8.2 8.2 7.8 8.3 7.5 7.7 7.2 7.1 7.1 7.3 6.7 6.5 6.7 7.0 7.5 7.0 6.8 7.0 7.3 7.4 7.6 7.7 7.7 7.8 7.9 8.1 8.1 7.7 7.4 6.1 6.0 6.1 7.0 7.2 6.8 6.4 6.4 7.2 7.3 7.2 7.1 7.1 7.7 6.9 6.6 6.7 6.9 6.4 6.7 6.8
7.2 7.9 8.2 8.4 7.1 7.1 6.9 8.3 7.0 7.2 6.5 6.6 7.0 6.5 6.5 6.6 7.1 7.6 6.6 7.0 7.2 8.1 8.0 8.1 8.1 8.2 7.7 7.6 7.8 7.8 7.7 6.9 7.2 7.2 6.0 7.2 6.9 6.8 6.9 6.6 6.6 6.8 7.3 7.3 7.2 7.0 6.8 6.1 6.3 6.5 6.6 7.0 7.0 7.3
7.4 7.6 7.1 7.1 7.1 6.5 7.4 6.8 7.3 6.9 6.8 6.5 6.5 6.5 6.5 6.5 7.3 6.6 6.5 6.8 7.3 8.1 8.0 8.0 8.2 7.9 8.0 7.8 7.3 6.8 6.5 5.8 6.1 5.8 5.7 6.2 6.0 6.6 6.9 7.3 7.4 6.7 7.1 7.3 6.4 6.3 6.0 5.9 6.4 6.8 6.6 6.7 6.8 6.9
7.1 6.9 7.0 6.5 7.2 6.6 6.5 6.5 6.5 6.5 6.5 6.5 6.5 6.5 6.5 7.0 6.5 6.5 6.5 6.7 7.2 7.5 7.6 8.0 8.1 8.0 7.6 7.5 7.8 7.4 6.3 6.0 6.3 6.4 5.9 5.8 5.6 5.5 7.0 6.5 6.6 6.6 6.3 6.4 6.0 6.0 6.0 6.2 6.6 6.3 6.6 6.8 7.1 7.1
6.5 7.0 6.7 6.5 6.6 6.5 6.5 6.5 6.5 6.5 6.5 6.5 6.5 6.7 6.9 6.5 6.5 6.5 6.5 7.1 7.3 7.6 7.6 7.6 7.5 7.7 7.8 8.2 7.8 7.6 7.3 6.1 5.8 6.4 5.9 5.8 5.5 5.6 5.9 6.5 6.5 6.5 6.0 5.7 5.7 5.9 6.0 6.1 6.3 6.5 6.7 6.8 6.7 6.8
6.5 6.5 7.2 7.7 7.3 7.1 6.7 6.8 7.0 6.5 6.5 6.5 6.5 6.5 6.5 6.5 6.5 6.5 7.4 7.7 7.6 7.8 8.0 7.8 7.4 7.5 7.7 7.9 7.8 7.4 6.6 6.2 6.4 6.1 7.0 6.2 5.0 4.7 5.2 6.0 6.2 6.0 5.8 5.3 5.2 5.5 6.0 6.1 6.6 6.6 6.8 6.8 7.1 7.3
7.0 7.2 6.5 7.0 6.9 7.1 6.5 6.5 6.5 6.5 6.5 7.1 6.7 6.5 6.5 6.5 6.5 7.3 7.7 7.8 7.4 7.7 8.1 8.0 7.2 7.8 8.0 8.0 8.1 8.0 7.3 6.2 5.7 5.6 6.4 5.7 5.1 4.7 4.6 4.6 4.4 4.5 5.2 4.9 5.2 5.3 5.6 5.9 6.3 6.4 6.6 6.9 7.1 6.9
7.0 7.7 7.5 6.5 6.8 6.8 6.7 6.6 6.5 7.1 7.5 7.2 6.5 6.5 6.6 7.4 7.7 7.8 7.8 7.9 8.4 8.4 7.6 7.5 7.5 7.5 7.4 7.2 7.5 7.2 6.7 6.2 6.5 6.8 7.1 7.1 6.8 5.7 5.2 5.0 4.8 4.7 4.8 4.9 4.5 5.2 5.7 5.8 6.0 6.3 6.3 6.4 6.4 6.5
7.0 8.0 7.0 6.7 6.5 6.5 7.0 7.6 7.3 7.7 8.1 7.4 7.6 7.6 7.7 7.8 7.9 8.2 8.2 8.0 7.9 7.6 7.6 7.5 7.4 7.5 7.3 7.3 7.2 7.0 6.3 6.4 6.3 6.6 6.9 6.8 6.5 5.7 5.6 5.6 5.7 5.5 5.4 5.5 5.5 5.2 4.9 5.5 5.6 5.9 6.0 6.2 6.6 6.9
7.9 7.6 7.0 7.0 6.6 7.3 7.7 8.1 8.2 8.2 8.0 7.3 7.5 7.6 7.5 7.7 7.5 7.4 7.7 8.3 8.2 6.5 5.4 5.7 6.2 6.5 6.3 6.8 7.4 7.3 7.4 6.5 6.2 6.1 6.0 5.8 5.8 5.7 5.6 5.6 5.5 5.6 5.7 5.9 6.0 6.3 6.4 6.5 6.6 6.5 6.7 6.9 7.0 7.1
7.5 7.0 6.8 6.5 6.6 7.7 8.1 7.7 7.5 7.3 7.2 7.1 7.1 7.1 7.4 7.3 7.1 7.9 8.0 7.6 7.9 6.0 5.5 5.5 5.3 6.3 6.4 6.8 7.2 7.1 6.4 6.0 5.5 5.5 5.6 6.1 6.0 5.9 5.8 5.9 5.7 5.9 6.4 6.4 6.4 6.6 6.8 6.8 6.9 7.1 7.0 7.1 7.1 7.1
7.3 7.4 7.3 7.0 6.8 6.8 7.5 7.3 7.0 6.8 7.0 6.9 7.1 7.3 7.3 7.3 6.9 7.9 8.3 8.3 8.0 7.4 6.0 5.2 5.1 6.4 6.3 6.5 5.6 6.7 7.4 6.9 6.2 5.6 5.4 5.3 5.2 5.4 6.2 6.4 6.7 6.7 6.8 6.8 6.7 6.8 6.8 6.8 6.8 7.0 6.8 6.5 6.6 6.3
Wind_Speed
25 25 24 24 26 27 28 29 31 30 30 32 33 32 31 31 32 17 10 9 7 4 9 9 9 8 6 4 6 2 2 8 7 7 6 8 7 8 12 19 18 15 6 3 9 9 10 7 8 10 6 9 13 15
27 25 22 24 24 27 28 28 30 30 28 30 32 31 31 32 32 27 6 9 7 5 3 7 10 11 10 13 4 3 4 4 4 3 3 2 3 4 10 11 15 12 3 4 1 4 22 23 13 8 10 6 4 8
27 22 18 22 22 24 26 27 26 28 29 28 30 31 30 32 31 23 8 8 5 4 7 11 12 10 10 11 8 7 8 6 6 8 3 3 7 6 6 8 7 6 12 4 7 3 19 19 12 13 16 8 10 11
21 15 16 17 19 21 24 25 27 27 27 26 29 31 29 31 31 28 9 6 7 4 3 6 9 17 16 11 13 13 13 14 11 7 7 6 8 8 9 13 13 9 12 11 15 15 17 15 11 10 7 7 10 13
19 17 17 18 18 20 23 25 25 25 25 25 26 31 29 29 30 20 6 7 9 5 1 4 10 10 13 13 16 16 14 14 8 7 7 9 9 10 10 12 13 11 13 10 13 14 12 19 21 20 8 10 6 7
19 16 15 16 17 19 20 22 22 23 24 23 25 29 28 29 30 7 3 6 8 7 2 2 4 7 10 12 14 16 13 10 8 3 5 9 18 12 7 11 17 13 14 10 13 12 17 21 29 11 8 7 3 2
21 15 13 14 15 16 18 20 21 22 21 22 23 24 30 31 12 4 1 1 18 5 1 3 3 6 11 11 10 8 10 6 5 6 7 11 12 11 11 15 18 18 20 20 19 15 16 22 8 3 5 7 7 6
19 20 15 12 13 16 18 19 20 21 20 20 21 20 27 31 13 4 1 5 16 4 1 3 3 2 8 7 7 8 8 5 4 3 5 8 9 9 8 13 16 18 17 19 20 20 21 9 9 6 5 8 3 8
23 19 17 16 12 13 16 19 20 19 20 19 20 17 6 2 3 3 18 14 4 1 5 4 5 6 3 5 2 1 2 4 4 6 9 5 8 7 13 14 16 17 11 17 17 14 5 8 7 8 9 6 7 6
23 22 16 16 15 18 18 20 19 27 30 24 6 3 2 1 28 12 4 2 2 2 3 4 8 7 7 5 3 2 3 4 3 6 4 6 12 17 16 14 13 4 12 15 10 7 9 9 8 9 7 7 7 9
21 25 27 29 29 27 26 28 26 21 8 3 2 3 8 20 2 2 4 4 4 4 4 6 10 8 7 5 4 4 3 2 3 4 5 4 4 14 21 20 13 10 8 8 10 7 7 8 8 7 7 7 11 12
16 19 19 18 19 16 11 14 12 3 3 7 9 5 2 1 2 3 4 3 6 5 6 9 8 8 3 2 2 3 4 3 4 6 3 3 3 6 8 8 8 2 4 6 7 8 9 10 10 9 9 10 9 7
12 7 5 6 9 12 14 21 18 23 20 7 3 4 3 3 4 5 7 4 4 3 4 6 4 3 3 3 3 4 6 3 1 2 2 1 4 4 7 5 4 5 7 6 9 9 10 10 10 9 7 6 5 6
10 8 5 3 6 2 1 6 12 5 2 3 5 5 4 5 5 5 5 5 4 5 5 6 4 3 3 4 3 3 1 2 3 3 2 5 8 8 6 5 6 8 7 6 6 8 7 5 7 7 8 7 6 7
13 8 4 9 8 3 8 2 1 2 2 1 2 3 5 4 0 2 3 1 2 3 4 3 2 3 4 3 3 2 2 4 4 1 3 4 6 5 4 6 6 4 3 4 4 4 4 4 7 8 7 6 6 6
14 8 3 8 10 1 10 4 2 1 2 2 3 2 2 3 4 3 2 3 4 2 1 2 2 3 4 3 4 5 3 2 3 3 5 5 6 5 4 4 4 4 4 3 3 4 5 7 7 5 5 7 8 8
15 2 5 10 11 4 12 2 1 2 3 3 1 1 1 3 2 3 4 3 3 3 3 2 5 5 2 3 4 3 3 3 2 4 5 6 4 4 4 4 3 3 4 3 3 4 5 1 2 4 8 7 8 7
2 8 13 12 10 4 3 4 3 2 3 2 2 3 0 1 1 2 2 3 3 3 3 4 2 3 2 3 2 4 4 2 3 4 4 3 4 4 3 4 3 4 4 2 3 3 3 1 4 4 6 5 7 7
9 9 14 11 5 3 3 4 4 3 2 2 2 2 1 0 1 2 1 2 4 3 4 2 1 2 1 4 4 2 2 1 2 3 3 3 4 4 3 4 4 4 5 4 2 1 2 4 3 3 3 3 4 4
15 13 9 7 5 3 3 2 2 2 1 2 2 3 2 1 1 0 2 2 2 2 1 1 2 5 4 5 4 4 3 3 2 1 2 6 5 5 5 5 4 5 4 3 3 1 3 3 3 4 4 4 4 4
5 2 5 4 6 4 3 3 2 1 2 0 2 1 2 3 3 3 3 3 2 2 1 5 6 6 8 6 4 5 4 4 4 2 2 1 3 3 3 2 4 1 2 3 2 2 1 3 4 4 4 5 5 5
2 4 2 2 2 2 3 1 2 2 2 1 3 3 2 3 4 3 3 3 2 3 3 3 4 5 6 7 6 7 7 7 6 0 2 2 2 3 2 3 4 3 3 3 3 3 2 5 5 4 5 5 5 4
4 2 1 1 1 2 2 1 4 4 3 2 3 3 2 2 2 2 2 3 3 2 4 5 5 5 5 4 5 6 8 8 5 4 1 2 1 0 1 4 3 3 3 2 2 2 3 7 6 6 5 5 4 5
1 3 4 2 2 1 1 2 3 2 1 2 2 2 2 2 3 2 3 2 2 5 6 8 6 6 5 7 5 5 5 4 4 3 1 1 2 2 4 3 3 1 2 3 3 4 5 5 7 5 5 5 5 5
2 4 4 3 2 2 2 2 1 2 1 1 2 2 2 2 2 2 2 3 5 6 7 7 6 6 4 3 4 4 5 5 5 5 2 2 2 2 3 3 3 3 3 4 5 6 5 6 5 5 6 6 6 7
8 9 11 11 6 5 5 1 1 1 2 1 2 2 1 0 2 4 3 7 8 8 7 8 7 6 7 7 7 6 7 5 5 3 3 3 3 2 2 2 3 3 2 3 5 7 7 7 7 8 7 8 9 8
6 8 5 4 6 7 3 1 3 2 2 2 2 2 1 2 3 4 4 6 5 5 5 4 4 5 6 6 5 4 5 5 3 3 4 3 2 2 1 1 1 1 4 4 5 7 8 8 8 8 7 7 7 7
5 8 14 13 8 3 5 5 7 7 5 6 7 1 3 5 5 3 5 7 8 7 6 6 6 7 6 5 5 4 4 3 3 4 1 2 2 2 3 2 2 3 3 3 4 5 6 6 7 7 8 8 7 5
7 10 9 9 7 5 6 6 7 5 6 5 6 5 4 4 6 5 6 8 8 8 8 8 9 8 7 7 5 3 3 3 5 5 5 1 2 3 3 3 3 3 3 3 4 4 6 6 6 6 7 7 6 5
7 9 6 8 7 5 6 7 7 7 7 3 4 9 9 9 8 8 8 8 9 9 8 8 8 8 8 8 8 7 5 5 4 4 4 4 4 2 3 3 3 3 3 4 4 5 9 8 10 8 7 6 5 6
7 8 6 7 5 8 8 8 8 8 6 3 9 9 7 6 5 9 11 9 9 9 10 10 10 9 9 9 8 8 7 7 9 10 6 4 4 4 4 3 3 1 3 3 4 5 6 7 7 8 8 8 8 7
8 7 6 7 7 7 7 8 6 3 2 5 6 1 6 4 4 3 8 10 10 11 13 11 10 11 12 9 6 7 9 7 8 9 12 7 6 5 4 3 3 2 2 4 5 6 7 8 7 7 8 10 9 10
8 8 7 7 6 8 8 6 3 3 5 3 6 8 8 4 5 4 5 8 9 9 10 10 10 9 11 9 12 9 7 6 10 12 13 12 12 10 6 5 4 3 2 4 5 7 9 11 9 10 11 11 11 12
Wind_Direction
292 276 255 238 222 212 206 203 202 199 196 193 193 196 192 188 188 189 210 214 217 223 257 277 266 256 268 265 257 250 330 220 213 219 236 235 254 256 261 259 265 277 272 274 231 229 247 199 333 285 287 324 277 296
303 284 252 223 212 202 199 198 199 191 189 186 191 194 189 188 187 186 206 205 217 244 269 313 287 275 267 266 309 208 229 283 178 229 262 330 321 312 291 268 265 266 314 323 338 331 301 302 321 338 301 272 0 357
324 300 213 193 192 191 190 185 184 181 183 183 187 188 186 185 184 182 199 182 189 218 266 260 246 247 255 264 258 271 267 265 279 307 290 277 264 277 278 291 307 324 309 287 320 287 303 315 340 249 273 0 351 330
7 48 118 145 158 168 173 175 174 174 178 177 178 185 188 183 182 183 191 183 192 176 233 262 234 231 234 222 240 246 259 276 286 270 276 264 268 284 276 288 289 287 290 297 291 296 310 285 305 356 14 342 334 336
33 63 92 113 130 144 153 158 163 169 171 174 177 180 183 180 179 181 193 198 203 212 266 271 295 226 196 215 231 228 233 245 253 267 250 252 262 277 276 283 271 276 280 276 278 297 299 292 306 283 280 328 3 353
29 64 85 105 122 134 144 153 159 164 167 171 174 177 180 176 171 149 168 242 214 230 343 283 330 208 209 213 225 235 237 236 237 245 248 247 252 255 268 266 275 285 275 291 299 293 305 293 272 307 317 322 41 340
30 52 81 106 120 132 144 151 156 159 162 167 172 180 175 169 157 165 166 153 182 141 170 272 246 223 218 220 217 237 244 232 232 245 236 250 260 272 268 261 274 276 276 279 286 303 306 289 301 328 313 330 114 79
43 44 56 90 118 131 137 141 146 151 155 159 159 159 169 161 131 185 54 142 160 98 115 255 248 226 195 218 229 227 236 221 209 235 240 236 249 244 253 259 258 264 267 261 263 264 233 298 319 306 297 319 272 180
36 42 54 60 95 108 129 139 139 143 142 136 114 103 95 75 114 140 121 85 52 163 186 219 241 264 166 232 252 286 214 241 243 232 228 224 236 234 227 240 247 254 287 305 298 294 322 292 295 319 318 302 299 331
39 38 60 73 83 105 119 117 118 112 112 101 76 88 94 167 116 92 53 108 149 204 238 240 220 232 182 178 209 247 210 231 248 216 197 223 243 243 238 243 248 275 264 280 310 318 345 340 343 339 326 327 332 13
55 55 77 74 70 81 98 108 112 108 72 74 88 59 112 133 125 150 142 171 165 211 218 219 225 222 184 205 225 201 271 244 252 191 201 215 234 232 228 229 247 238 254 308 313 330 334 329 329 322 312 30 41 27
55 82 87 75 71 75 114 130 143 191 138 128 108 129 137 153 126 164 157 181 196 213 199 200 212 216 194 132 165 249 244 221 271 139 226 266 14 41 104 160 179 267 339 329 348 8 13 21 9 10 27 27 28 18
67 95 44 22 48 35 62 72 72 122 125 143 126 116 181 181 180 195 175 192 201 192 206 166 156 135 136 155 209 248 220 256 236 236 257 295 85 110 90 85 99 55 16 17 34 33 40 40 34 37 38 27 29 25
27 76 96 285 298 59 8 57 34 18 304 190 154 159 224 174 230 203 199 185 200 193 192 171 139 184 171 201 227 257 292 248 261 235 60 89 79 65 54 35 40 56 38 53 58 48 50 56 52 42 40 37 41 50
354 345 234 18 350 234 206 217 69 312 348 272 227 212 213 248 357 32 24 168 142 162 145 130 152 173 215 173 217 236 256 254 235 352 89 86 91 90 69 65 70 64 50 54 60 58 59 60 63 52 37 39 50 51
337 326 43 358 359 32 173 146 171 36 308 257 234 238 275 258 229 171 155 208 152 143 120 68 282 231 209 172 182 213 242 282 69 81 108 113 110 112 119 116 110 114 121 95 76 76 65 56 61 72 69 62 54 57
312 114 76 20 5 33 165 143 72 214 242 234 158 38 304 275 329 119 190 168 105 163 212 140 225 195 191 211 206 203 2 74 78 88 70 94 130 127 123 117 107 95 77 76 64 60 75 70 222 81 68 77 78 73
180 124 47 10 338 131 185 195 191 223 259 218 268 121 296 32 104 116 156 156 170 220 210 241 242 195 163 206 90 57 99 106 63 50 74 111 119 129 153 139 178 132 116 130 130 125 122 155 74 81 96 100 95 88
327 324 321 312 303 298 201 213 208 249 191 123 118 131 156 221 161 109 106 192 246 281 276 284 274 243 97 56 87 110 18 17 106 114 112 134 132 145 170 150 139 159 168 174 190 82 84 51 58 81 84 67 88 90
291 286 275 263 242 236 239 213 206 275 211 129 132 166 179 139 70 58 225 221 221 297 263 278 357 46 47 49 24 15 18 13 340 302 158 147 155 174 178 184 180 172 174 182 131 91 109 100 93 68 68 62 81 84
266 136 229 217 193 259 295 316 134 44 337 307 112 169 147 154 178 174 170 183 202 224 265 37 32 22 8 2 354 338 315 314 312 346 12 21 129 178 168 156 110 134 186 191 160 131 167 142 126 108 100 92 86 82
60 311 271 195 245 219 246 132 314 323 240 250 179 208 192 189 169 175 136 185 59 44 28 4 11 1 356 354 336 325 331 354 347 334 165 154 169 195 150 144 162 178 196 189 203 168 145 125 119 107 105 105 102 111
289 242 280 203 98 255 274 160 231 201 216 220 173 204 160 136 93 183 108 57 90 5 31 19 13 20 9 2 6 18 14 0 330 335 75 265 296 166 135 149 154 160 194 150 93 125 113 120 118 115 119 120 121 118
180 20 359 9 305 201 227 258 243 252 301 232 218 129 85 99 173 200 82 73 78 57 34 18 12 14 15 24 27 27 9 343 327 326 312 294 280 179 165 154 167 152 138 134 130 123 125 124 127 132 137 137 141 149
265 33 335 16 321 286 233 207 298 269 171 172 48 88 100 190 172 93 96 111 76 48 28 14 0 357 358 11 3 19 25 360 343 336 346 18 3 309 171 137 150 167 142 147 152 147 145 144 148 153 158 155 153 150
45 23 6 360 347 337 0 252 140 40 78 70 77 76 25 177 121 101 67 17 36 24 4 3 358 346 340 11 9 2 351 340 321 317 37 13 6 347 322 189 179 194 165 147 164 161 160 161 166 168 168 162 155 148
38 8 344 328 298 279 272 347 17 28 64 48 38 359 196 195 93 65 67 27 6 354 338 345 338 337 339 334 333 323 317 314 335 329 334 359 8 0 332 314 248 182 158 172 166 168 169 170 169 171 165 158 163 163
15 2 333 329 319 334 17 17 17 23 30 358 330 273 17 38 49 53 24 3 357 358 6 5 10 347 326 322 311 312 334 329 290 265 227 107 40 21 21 22 14 41 82 119 144 146 154 164 168 171 168 163 158 158
354 341 335 358 355 18 33 17 1 10 350 339 341 21 65 52 33 33 20 13 15 16 11 1 358 350 357 349 356 346 359 344 337 324 325 67 140 51 22 34 48 54 68 81 92 124 139 144 144 146 140 136 132 136
338 341 336 3 343 12 5 353 326 311 312 312 85 107 93 79 57 38 31 22 19 17 7 1 352 357 358 347 340 353 47 17 16 353 5 44 53 54 43 45 54 62 78 93 100 109 110 110 109 109 112 124 138 139
333 338 344 346 313 333 338 320 319 299 276 242 164 149 138 146 110 57 29 16 17 13 7 3 359 353 343 341 8 9 34 26 13 19 28 48 56 50 40 28 14 83 120 126 127 124 124 124 127 132 140 135 136 140
334 326 314 309 327 331 336 343 313 294 13 47 21 78 147 88 71 67 19 7 13 14 1 355 347 343 350 348 22 45 36 29 20 18 21 27 34 27 15 4 355 343 166 154 144 142 138 132 136 132 130 134 130 121
312 316 360 341 331 331 332 325 299 325 55 62 37 21 37 63 77 35 38 20 5 10 352 345 334 329 348 6 8 0 40 45 40 33 31 29 22 10 4 359 354 349 241 168 143 136 132 127 125 124 113 111 108 105